FW9882 Weather Reports


time (UTC)temp
C
wind
direction
speed
KPH
gust
KPH
rain 1hr
cm
rain 24hr
cm
rain mn
cm
humidity
%
barometer
mb
20260508100703 6 338 0.0 0.0 0.00 0.86 0.00 81 1000.0
20260508100203 6 338 0.0 1.6 0.00 0.86 0.00 83 1000.0
20260508090704 6 281 0.0 1.6 0.00 0.89 0.00 81 999.7
20260508090203 6 281 0.0 3.2 0.00 0.89 0.00 81 999.7
20260508080700 7 285 0.0 1.6 0.00 1.02 0.00 81 999.7
20260508080200 7 281 0.0 1.6 0.00 1.02 0.00 81 999.7
20260508070700 7 88 0.0 0.0 0.00 1.17 0.00 82 999.7
20260508070201 7 88 0.0 1.6 0.00 1.19 0.00 83 999.7
20260508060702 7 342 0.0 0.0 0.00 1.32 0.00 81 999.7
20260508060201 7 342 0.0 3.2 0.00 1.32 0.00 81 1000.0
20260508050700 7 265 3.2 3.2 0.00 1.37 0.00 82 1000.7
20260508050200 7 269 3.2 3.2 0.00 1.37 0.00 82 1000.7
20260508040701 6 299 0.0 1.6 0.00 1.42 0.00 92 1000.0
20260508040201 6 299 0.0 3.2 0.00 1.42 0.00 94 999.7
20260508030700 6 358 1.6 3.2 0.71 1.42 0.00 94 999.7
20260508020701 6 147 0.0 1.6 0.00 0.71 0.71 93 999.7
20260508010701 7 127 1.6 1.6 0.00 0.71 0.71 92 999.7
20260508010201 7 111 1.6 3.2 0.00 0.71 0.71 92 999.7
20260508000701 8 127 0.0 0.0 0.00 0.71 0.71 89 999.5
20260508000204 8 127 0.0 1.6 0.00 0.71 0.71 88 999.6
20260507230703 13 296 0.0 0.0 0.00 0.71 0.71 53 999.0
20260507220701 14 343 1.6 1.6 0.00 0.71 0.71 53 999.0
20260507220201 14 330 1.6 4.8 0.00 0.71 0.71 53 999.0
20260507210702 15 248 3.2 4.8 0.00 0.71 0.71 50 998.6
20260507210202 15 241 3.2 4.8 0.00 0.71 0.71 50 998.6
20260507200701 15 333 0.0 1.6 0.00 0.71 0.71 59 998.3
20260507200204 15 299 1.6 8.0 0.00 0.71 0.71 62 998.3
20260507190202 14 290 1.6 9.7 0.00 0.71 0.71 69 998.3
20260507180703 13 263 3.2 4.8 0.00 0.71 0.71 78 998.6
20260507180203 13 269 4.8 8.0 0.00 0.71 0.71 75 998.3
20260507170703 11 293 4.8 8.0 0.00 0.71 0.71 89 999.3
20260507170202 11 298 3.2 3.2 0.00 0.71 0.71 90 999.0
20260507160703 10 272 0.0 3.2 0.00 0.71 0.71 93 999.0
20260507160203 10 272 3.2 3.2 0.00 0.71 0.71 93 999.3
20260507150703 10 85 0.0 1.6 0.05 0.71 0.71 93 999.3
20260507150203 10 84 1.6 3.2 0.05 0.71 0.71 93 999.0
20260507140704 11 114 0.0 0.0 0.10 0.66 0.66 91 1000.3
20260507140203 11 114 0.0 4.8 0.10 0.66 0.66 90 1000.3
20260507130704 12 265 4.8 4.8 0.00 0.56 0.56 86 1000.3
20260507130204 12 271 3.2 3.2 0.00 0.56 0.56 86 1000.0
20260507120703 11 269 3.2 3.2 0.00 0.56 0.56 87 1000.0
20260507120206 11 268 3.2 11.3 0.00 0.56 0.56 87 999.9
20260507110703 11 247 9.7 11.3 0.00 0.56 0.56 89 998.6